This is the latest recevied weather packets stored in our database for station/object KG4ZVW. If no packets are shown the sender has not sent any weather packets the latest 10 day(s).
| Time | Temp. | Humidity | Pressure | Rain* | Wind** | Luminosity | Snow |
|---|---|---|---|---|---|---|---|
| 1777472317 | 26.67° C | 73% | 1017.4 hPa | 0 mm | - | 127 W/m² | - |
| 1777472010 | 26.67° C | 73% | 1017.4 hPa | 0 mm | - | 348 W/m² | - |
| 1777471400 | 26.67° C | 75% | 1017.1 hPa | 0 mm | - | 642 W/m² | - |
| 1777471098 | 26.67° C | 74% | 1017.1 hPa | 0 mm | - | 617 W/m² | - |
| 1777470510 | 26.11° C | 78% | 1017.1 hPa | 0 mm | - | 573 W/m² | - |
| 1777469900 | 25.56° C | 78% | 1017.6 hPa | 0 mm | - | 538 W/m² | - |
| 1777469312 | 25° C | 79% | 1017.6 hPa | 0 mm | - | 510 W/m² | - |
| 1777469006 | 25° C | 80% | 1017.2 hPa | 0 mm | - | 466 W/m² | - |
| 1777468701 | 24.44° C | 81% | 1017.2 hPa | 0 mm | - | 399 W/m² | - |
| 1777468420 | 24.44° C | 82% | 1017.2 hPa | 0 mm | - | 468 W/m² | - |
| 1777468113 | 23.89° C | 82% | 1017 hPa | 0 mm | - | 454 W/m² | - |
| 1777467807 | 23.89° C | 82% | 1017 hPa | 0 mm | - | 327 W/m² | - |
| 1777467218 | 23.33° C | 85% | 1016.8 hPa | 0 mm | - | 376 W/m² | - |
| 1777466914 | 23.33° C | 86% | 1016.8 hPa | 0 mm | - | 276 W/m² | - |
| 1777466305 | 22.78° C | 88% | 1016.6 hPa | 0 mm | - | 439 W/m² | - |
| 1777466019 | 22.78° C | 89% | 1016.6 hPa | 0 mm | - | 148 W/m² | - |
| 1777465713 | 22.22° C | 89% | 1016.6 hPa | 0 mm | - | 315 W/m² | - |
| 1777465410 | 22.22° C | 89% | 1016.5 hPa | 0 mm | - | 77 W/m² | - |
| 1777465105 | 22.22° C | 89% | 1016.5 hPa | 0 mm | - | 227 W/m² | - |
| 1777464820 | 21.67° C | 89% | 1016.5 hPa | 0 mm | - | 258 W/m² | - |
| 1777464515 | 21.67° C | 89% | 1016.3 hPa | 0 mm | - | 77 W/m² | - |
| 1777464209 | 21.67° C | 89% | 1016.3 hPa | 0 mm | - | 199 W/m² | - |
| 1777463909 | 21.67° C | 89% | 1016.3 hPa | 0 mm | - | 58 W/m² | - |
| 1777463300 | 21.11° C | 89% | 1016.1 hPa | 0 mm | - | 74 W/m² | - |
| 1777462709 | 20.56° C | 88% | 1015.9 hPa | 0 mm | - | 141 W/m² | - |
* Rain latest hour (hover to see other rain measurements)
** Current wind speed in m/s (hover to see current wind gust speed)